Printer-friendly version
Follow the MPC on Twitter Follow the MPC on Facebook The MPC blog
Minor Planet Center

MPEC 2006-U13 : 2006 UP

The following Minor Planet Electronic Circular may be linked-to from your own Web pages, but must not otherwise be redistributed electronically.

A form allowing access to any MPEC is at the bottom of this page.


Read MPEC 2006-U12 Read MPEC 2006-U14


M.P.E.C. 2006-U13                                Issued 2006 Oct. 18, 13:21 UT

     The Minor Planet Electronic Circulars contain information on unusual
         minor planets and routine data on comets.  They are published
   on behalf of Commission 20 of the International Astronomical Union by the
          Minor Planet Center, Smithsonian Astrophysical Observatory,
                          Cambridge, MA 02138, U.S.A.

             Prepared using the Tamkin Foundation Computer Network

                              MPC@CFA.HARVARD.EDU
          URL http://cfa-www.harvard.edu/iau/mpc.html  ISSN 1523-6714

                                    2006 UP

Observations:
     K06U00P* C2006 10 16.38896 03 56 30.22 +13 36 14.8          19.7 V EU013703
     K06U00P  C2006 10 16.39601 03 56 31.09 +13 36 25.4          20.1 V EU013703
     K06U00P  C2006 10 16.40318 03 56 31.88 +13 36 35.6          20.0 V EU013703
     K06U00P  C2006 10 16.41034 03 56 32.74 +13 36 47.5          19.8 V EU013703
     K06U00P  C2006 10 16.41897 03 56 33.57 +13 37 01.0          19.6 V EU013703
     K06U00P  C2006 10 16.42648 03 56 34.62 +13 37 11.9          19.8 V EU013703
     K06U00P  C2006 10 16.43405 03 56 35.55 +13 37 22.2          20.0 V EU013703
     K06U00P  C2006 10 16.44157 03 56 36.49 +13 37 31.1          19.4 V EU013703
     K06U00P  C2006 10 18.45339 04 01 07.50 +14 27 58.3          20.8 V EU013691
     K06U00P  C2006 10 18.47078 04 01 09.40 +14 28 23.5          20.5 V EU013691
     K06U00P  C2006 10 18.48818 04 01 11.29 +14 28 49.3          20.6 V EU013691
     K06U00P  C2006 10 18.51154 04 01 13.83 +14 29 22.5          20.6 V EU013291
     K06U00P  C2006 10 18.51538 04 01 14.24 +14 29 27.6          20.4 V EU013291
     K06U00P HC2006 10 18.51921 04 01 14.78 +14 29 34.2                 EU013291

Observer details:
291 LPL/Spacewatch II.  Observer T. H. Bressi.  1.8-m f/2.7 reflector + CCD.
691 Steward Observatory, Kitt Peak.  Observer T. H. Bressi.  0.9-m f/3
    reflector + CCD.
703 Catalina Sky Survey.  Observer R. A. Kowalski.  Measurers E. C. Beshore,
    E. J. Christensen, G. J. Garradd, A. R. Gibbs, A. D. Grauer, R. E. Hill,
    R. A. Kowalski, S. M. Larson, R. H. McNaught.  0.68-m Schmidt + CCD.

Orbital elements:
2006 UP                                                  Earth MOID = 0.1130 AU
Epoch 2006 Sept. 22.0 TT = JDT 2454000.5                MPC
M 349.73594              (2000.0)            P               Q
n   0.49655367     Peri.  335.56480     +0.91715164     -0.39740959
a   1.5793992      Node    47.88598     +0.37197903     +0.82660907
e   0.2980882      Incl.    2.31582     +0.14305412     +0.39847592
P   1.98           H   22.7           G   0.15           U   9
Residuals in seconds of arc
061016 703  0.5-  0.1-    061016 703  0.3-  0.3+    061018 691  0.4-  0.2+
061016 703  0.1+  0.2-    061016 703  0.4+  0.8-    061018 291  0.9-  0.2-
061016 703  0.6-  0.9-    061016 703 (1.3+  3.1-)   061018 291  1.2-  0.6-
061016 703  0.2-  0.2+    061018 691  0.6-  0.1-    061018 291  0.4+  0.5+
061016 703  2.8-  0.7+    061018 691  0.3-  0.3-

Ephemeris:
2006 UP                  a,e,i = 1.58, 0.30, 2                   q = 1.1086
Date    TT    R. A. (2000) Decl.     Delta      r     Elong.  Phase     V
2006 10 12    03 45.50   +11 44.3    0.138    1.109   140.9    34.6    20.1
2006 10 22    04 08.29   +15 55.0    0.139    1.112   144.9    31.0    20.0
2006 11 01    04 22.60   +19 39.9    0.145    1.122   151.1    25.3    19.9
2006 11 11    04 28.97   +22 46.2    0.157    1.139   159.2    18.0    19.9
2006 11 21    04 29.23   +25 04.7    0.176    1.161   168.5     9.8    19.9
2006 12 01    04 26.81   +26 35.0    0.204    1.189   175.1     4.0    20.0
2006 12 11    04 25.17   +27 25.7    0.241    1.222   168.7     9.0    20.6
2006 12 21    04 26.32   +27 49.4    0.288    1.258   159.5    15.9    21.4
2006 12 31    04 31.31   +27 58.7    0.346    1.296   150.8    21.7    22.0

Timothy B. Spahr             (C) Copyright 2006 MPC           M.P.E.C. 2006-U13

Read MPEC 2006-U12 Read MPEC 2006-U14


MPEC number:

Enter an MPEC number in one of the following forms:

  • 1997-B01 (the full form)
  • J97B01 (the packed version of the full form)
  • B01 (the abbreviated form)

Valid HTML 4.01!